IGO091 VOMM-VOBL

Flight info

Callsign IGO091
Flight time 0h 35m
Altitude 16000
Route MMV W117 XIVIL XIVIL7F
Aircraft A320/M-SDE3FGHIRWY/LB1

Departure

Time 2026-04-26 07:31
Airport Chennai International Airport (VOMM)

Arrival

Time 2026-04-26 08:06
Airport Kempegowda International Airport Bengaluru (VOBL)
Time Latitude Longitude Altitude Speed Heading
2026-04-26 07:09 12.98462 80.16601 49 ft 0 kts 159°
2026-04-26 07:20 12.98471 80.16598 50 ft 2 kts 158°
2026-04-26 07:20 12.98486 80.16591 55 ft 2 kts 158°
2026-04-26 07:20 12.98501 80.16585 51 ft 2 kts 153°
2026-04-26 07:20 12.98516 80.16577 53 ft 2 kts 115°
2026-04-26 07:21 12.98517 80.16564 50 ft 1 kts 68°
2026-04-26 07:21 12.98516 80.16563 50 ft 0 kts 68°
2026-04-26 07:23 12.98520 80.16573 50 ft 3 kts 69°
2026-04-26 07:23 12.98531 80.16602 49 ft 6 kts 69°
2026-04-26 07:24 12.98548 80.16649 52 ft 9 kts 70°
2026-04-26 07:24 12.98572 80.16716 50 ft 11 kts 70°
2026-04-26 07:24 12.98628 80.16766 52 ft 13 kts 349°
2026-04-26 07:24 12.98718 80.16731 50 ft 15 kts 343°
2026-04-26 07:25 12.98781 80.16804 55 ft 16 kts 69°
2026-04-26 07:25 12.98827 80.16922 55 ft 19 kts 69°
2026-04-26 07:25 12.98879 80.17061 50 ft 22 kts 69°
2026-04-26 07:25 12.98939 80.17217 51 ft 25 kts 65°
2026-04-26 07:26 12.99013 80.17383 50 ft 27 kts 68°
2026-04-26 07:26 12.99083 80.17568 51 ft 29 kts 69°
2026-04-26 07:26 12.99121 80.17667 56 ft 8 kts 67°
2026-04-26 07:26 12.99166 80.17699 53 ft 9 kts 358°
2026-04-26 07:27 12.99202 80.17688 54 ft 1 kts 338°
2026-04-26 07:27 12.99209 80.17686 50 ft 0 kts 338°
2026-04-26 07:27 12.99212 80.17684 50 ft 2 kts 338°
2026-04-26 07:27 12.99234 80.17676 55 ft 5 kts 339°
2026-04-26 07:28 12.99276 80.17659 55 ft 8 kts 339°
2026-04-26 07:28 12.99285 80.17611 58 ft 0 kts 248°
2026-04-26 07:30 12.99282 80.17604 57 ft 4 kts 248°
2026-04-26 07:30 12.99187 80.17355 51 ft 76 kts 250°
2026-04-26 07:30 12.98916 80.16632 50 ft 137 kts 250°
2026-04-26 07:30 12.98496 80.15573 116 ft 178 kts 249°
2026-04-26 07:31 12.98066 80.14416 862 ft 175 kts 247°
2026-04-26 07:31 12.97685 80.13225 1432 ft 182 kts 257°
2026-04-26 07:31 12.97841 80.11866 1687 ft 206 kts 284°
2026-04-26 07:31 12.98268 80.10371 1897 ft 231 kts 284°
2026-04-26 07:32 12.98738 80.08707 2276 ft 255 kts 284°
2026-04-26 07:32 12.99239 80.06902 2881 ft 269 kts 284°
2026-04-26 07:32 12.99748 80.05038 3721 ft 273 kts 283°
2026-04-26 07:32 13.00259 80.03141 4606 ft 278 kts 284°
2026-04-26 07:33 13.00774 80.01206 5441 ft 284 kts 285°
2026-04-26 07:33 13.01300 79.99223 6230 ft 292 kts 286°
2026-04-26 07:33 13.01835 79.97205 7034 ft 295 kts 287°
2026-04-26 07:33 13.02379 79.95158 7841 ft 299 kts 287°
2026-04-26 07:34 13.02930 79.93084 8627 ft 304 kts 287°
2026-04-26 07:34 13.03486 79.90975 9405 ft 308 kts 288°
2026-04-26 07:34 13.04051 79.88826 10017 ft 320 kts 288°
2026-04-26 07:34 13.04652 79.86547 10241 ft 343 kts 287°
2026-04-26 07:35 13.05282 79.84166 10623 ft 356 kts 287°
2026-04-26 07:35 13.05935 79.81699 11246 ft 360 kts 287°
2026-04-26 07:35 13.06595 79.79202 11925 ft 364 kts 287°
2026-04-26 07:35 13.07254 79.76687 12586 ft 367 kts 287°
2026-04-26 07:36 13.07921 79.74146 13261 ft 370 kts 287°
2026-04-26 07:36 13.08592 79.71585 13875 ft 373 kts 287°
2026-04-26 07:36 13.09267 79.69007 14452 ft 376 kts 287°
2026-04-26 07:36 13.09952 79.66408 15041 ft 378 kts 287°
2026-04-26 07:37 13.10641 79.63795 15598 ft 381 kts 286°
2026-04-26 07:37 13.11333 79.61167 15789 ft 382 kts 286°
2026-04-26 07:37 13.12026 79.58519 15849 ft 390 kts 286°
2026-04-26 07:37 13.12731 79.55820 15857 ft 393 kts 286°
2026-04-26 07:38 13.13441 79.53106 15858 ft 394 kts 286°
2026-04-26 07:38 13.14153 79.50389 15859 ft 394 kts 286°
2026-04-26 07:38 13.14864 79.47672 15856 ft 394 kts 286°
2026-04-26 07:38 13.15576 79.44957 15857 ft 394 kts 286°
2026-04-26 07:39 13.16288 79.42244 15858 ft 394 kts 286°
2026-04-26 07:39 13.17002 79.39524 15859 ft 395 kts 286°
2026-04-26 07:39 13.17714 79.36810 15861 ft 395 kts 286°
2026-04-26 07:39 13.18424 79.34087 15860 ft 395 kts 286°
2026-04-26 07:40 13.19133 79.31361 15861 ft 395 kts 286°
2026-04-26 07:40 13.19842 79.28637 15863 ft 395 kts 286°
2026-04-26 07:40 13.20554 79.25910 15876 ft 395 kts 286°
2026-04-26 07:40 13.21257 79.23224 15877 ft 395 kts 286°
2026-04-26 07:41 13.21968 79.20502 15878 ft 395 kts 286°
2026-04-26 07:41 13.22679 79.17778 15878 ft 395 kts 286°
2026-04-26 07:41 13.23401 79.15013 15883 ft 395 kts 286°
2026-04-26 07:41 13.24103 79.12328 15901 ft 396 kts 286°
2026-04-26 07:42 13.24815 79.09603 15900 ft 396 kts 286°
2026-04-26 07:42 13.25526 79.06870 15904 ft 396 kts 286°
2026-04-26 07:42 13.26235 79.04139 15917 ft 396 kts 286°
2026-04-26 07:42 13.26941 79.01411 15917 ft 396 kts 286°
2026-04-26 07:43 13.27650 78.98671 15916 ft 396 kts 286°
2026-04-26 07:43 13.28357 78.95940 15938 ft 396 kts 286°
2026-04-26 07:43 13.29029 78.93204 15939 ft 396 kts 282°
2026-04-26 07:43 13.29300 78.90390 15938 ft 396 kts 270°
2026-04-26 07:44 13.29140 78.87566 15935 ft 396 kts 266°
2026-04-26 07:44 13.29002 78.85696 15932 ft 393 kts 266°
2026-04-26 07:44 13.28797 78.82912 15933 ft 392 kts 266°
2026-04-26 07:44 13.28528 78.79202 15939 ft 395 kts 266°
2026-04-26 07:45 13.28325 78.76385 15935 ft 395 kts 266°
2026-04-26 07:45 13.28122 78.73563 15935 ft 396 kts 266°
2026-04-26 07:45 13.27920 78.70743 15936 ft 396 kts 266°
2026-04-26 07:45 13.27717 78.67923 15961 ft 396 kts 266°
2026-04-26 07:46 13.27583 78.66059 15955 ft 395 kts 266°
2026-04-26 07:46 13.27380 78.63245 15955 ft 395 kts 266°
2026-04-26 07:46 13.27176 78.60431 15955 ft 396 kts 266°
2026-04-26 07:46 13.26968 78.57619 15957 ft 395 kts 266°
2026-04-26 07:47 13.26761 78.54801 15958 ft 395 kts 266°
2026-04-26 07:47 13.26555 78.51986 15960 ft 396 kts 266°
2026-04-26 07:47 13.26352 78.49195 15783 ft 387 kts 266°
2026-04-26 07:47 13.26241 78.46483 15226 ft 374 kts 274°
2026-04-26 07:48 13.26574 78.43896 14721 ft 358 kts 281°
2026-04-26 07:48 13.26976 78.41418 14265 ft 346 kts 281°
2026-04-26 07:48 13.27363 78.38998 13832 ft 344 kts 281°
2026-04-26 07:48 13.27748 78.36571 13341 ft 345 kts 281°
2026-04-26 07:49 13.28130 78.34167 13193 ft 335 kts 281°
2026-04-26 07:49 13.28504 78.31849 13114 ft 323 kts 282°
2026-04-26 07:49 13.28869 78.29611 13035 ft 313 kts 282°
2026-04-26 07:50 13.29588 78.25227 12883 ft 318 kts 282°
2026-04-26 07:50 13.29957 78.22987 12632 ft 318 kts 282°
2026-04-26 07:50 13.30327 78.20753 12300 ft 316 kts 282°
2026-04-26 07:50 13.30695 78.18528 12019 ft 314 kts 282°
2026-04-26 07:51 13.31059 78.16318 11969 ft 314 kts 282°
2026-04-26 07:51 13.31425 78.14103 11976 ft 315 kts 282°
2026-04-26 07:51 13.31790 78.11911 11979 ft 315 kts 282°
2026-04-26 07:51 13.32156 78.09685 11994 ft 315 kts 280°
2026-04-26 07:52 13.32215 78.07432 11979 ft 317 kts 269°
2026-04-26 07:52 13.32120 78.05176 11687 ft 315 kts 269°
2026-04-26 07:52 13.32025 78.02940 11363 ft 313 kts 269°
2026-04-26 07:52 13.31931 78.00703 11063 ft 312 kts 269°
2026-04-26 07:53 13.31837 77.98486 10779 ft 309 kts 269°
2026-04-26 07:53 13.31744 77.96283 10481 ft 308 kts 269°
2026-04-26 07:53 13.31653 77.94098 10227 ft 304 kts 268°
2026-04-26 07:53 13.31563 77.91942 9971 ft 301 kts 268°
2026-04-26 07:54 13.31471 77.89806 9683 ft 299 kts 268°
2026-04-26 07:54 13.31380 77.87676 9350 ft 298 kts 268°
2026-04-26 07:54 13.31291 77.85561 9061 ft 295 kts 268°
2026-04-26 07:54 13.31200 77.83454 8995 ft 296 kts 268°
2026-04-26 07:55 13.31110 77.81377 8998 ft 285 kts 268°
2026-04-26 07:55 13.31023 77.79371 9025 ft 280 kts 268°
2026-04-26 07:55 13.30949 77.77373 9027 ft 280 kts 269°
2026-04-26 07:55 13.30939 77.75402 9027 ft 279 kts 271°
2026-04-26 07:56 13.30962 77.73409 9027 ft 279 kts 271°
2026-04-26 07:56 13.30995 77.71412 9029 ft 280 kts 271°
2026-04-26 07:56 13.31027 77.69419 9027 ft 279 kts 271°
2026-04-26 07:56 13.31053 77.67421 9028 ft 280 kts 271°
2026-04-26 07:57 13.31075 77.65418 9028 ft 281 kts 271°
2026-04-26 07:57 13.31094 77.63418 9027 ft 279 kts 271°
2026-04-26 07:57 13.31112 77.61425 9026 ft 280 kts 271°
2026-04-26 07:57 13.31129 77.59428 9026 ft 279 kts 271°
2026-04-26 07:58 13.31143 77.57478 9023 ft 267 kts 271°
2026-04-26 07:58 13.31156 77.55614 9022 ft 257 kts 271°
2026-04-26 07:58 13.31168 77.53781 9023 ft 256 kts 271°
2026-04-26 07:58 13.31181 77.51958 9019 ft 255 kts 271°
2026-04-26 07:59 13.31195 77.50135 9019 ft 255 kts 271°
2026-04-26 07:59 13.31210 77.48316 8901 ft 254 kts 271°
2026-04-26 07:59 13.31225 77.46505 8618 ft 253 kts 271°
2026-04-26 07:59 13.31100 77.44714 8336 ft 252 kts 252°
2026-04-26 08:00 13.30225 77.43196 8044 ft 248 kts 221°
2026-04-26 08:00 13.28747 77.42372 7783 ft 240 kts 189°
2026-04-26 08:00 13.27145 77.42270 7668 ft 227 kts 167°
2026-04-26 08:00 13.25784 77.42933 7540 ft 212 kts 132°
2026-04-26 08:01 13.24893 77.44111 7377 ft 203 kts 121°
2026-04-26 08:01 13.24163 77.45323 7125 ft 202 kts 119°
2026-04-26 08:01 13.23451 77.46561 6889 ft 201 kts 118°
2026-04-26 08:01 13.22749 77.47796 6660 ft 200 kts 119°
2026-04-26 08:02 13.22053 77.49030 6416 ft 199 kts 118°
2026-04-26 08:02 13.21355 77.50259 6153 ft 199 kts 119°
2026-04-26 08:02 13.20784 77.51533 6080 ft 196 kts 107°
2026-04-26 08:02 13.20599 77.52927 5880 ft 200 kts 79°
2026-04-26 08:03 13.20877 77.54313 5630 ft 198 kts 88°
2026-04-26 08:03 13.20849 77.55727 5399 ft 198 kts 92°
2026-04-26 08:03 13.20817 77.57137 5155 ft 197 kts 91°
2026-04-26 08:03 13.20800 77.58555 4914 ft 198 kts 91°
2026-04-26 08:04 13.20787 77.59975 4657 ft 196 kts 90°
2026-04-26 08:04 13.20776 77.61310 4436 ft 179 kts 90°
2026-04-26 08:04 13.20766 77.62532 4212 ft 163 kts 90°
2026-04-26 08:04 13.20757 77.63656 4010 ft 150 kts 90°
2026-04-26 08:05 13.20749 77.64694 3814 ft 143 kts 91°
2026-04-26 08:05 13.20740 77.65719 3626 ft 145 kts 92°
2026-04-26 08:05 13.20732 77.66756 3423 ft 146 kts 92°
2026-04-26 08:05 13.20727 77.67797 3156 ft 145 kts 92°
2026-04-26 08:06 13.20716 77.68825 2988 ft 146 kts 92°
2026-04-26 08:06 13.20706 77.69777 2969 ft 111 kts 90°
2026-04-26 08:06 13.20701 77.70391 2968 ft 61 kts 90°
2026-04-26 08:06 13.20698 77.70730 2969 ft 44 kts 91°
2026-04-26 08:07 13.20639 77.70989 2966 ft 17 kts 115°
2026-04-26 08:07 13.20597 77.71065 2966 ft 8 kts 121°
2026-04-26 08:07 13.20567 77.71116 2967 ft 9 kts 121°
2026-04-26 08:07 13.20531 77.71180 2967 ft 12 kts 117°
2026-04-26 08:08 13.20511 77.71266 2966 ft 13 kts 128°
2026-04-26 08:08 13.20418 77.71276 2968 ft 13 kts 180°
2026-04-26 08:08 13.20316 77.71275 2968 ft 16 kts 180°
2026-04-26 08:08 13.20239 77.71227 2968 ft 11 kts 269°
2026-04-26 08:09 13.20237 77.71220 2968 ft 0 kts 250°
2026-04-26 08:09 13.20233 77.71220 2968 ft 0 kts 207°
2026-04-26 08:09 13.20225 77.71228 2969 ft 4 kts 136°
2026-04-26 08:09 13.20184 77.71241 2969 ft 7 kts 181°
2026-04-26 08:10 13.20163 77.71241 2969 ft 0 kts 179°